Tracking 35237 objects as of 4-Sep-2026
HD Live streaming from Space Station
objects crossing your sky now

HULIANWANG DIGUI-173

Track HULIANWANG DIGUI-173 now!
10-day predictions


NORAD ID: 69576
Int'l Code: 2026-137E
Launch date: June 17, 2026
Source: People's Republic of China (PRC)
Launch site: Wenchang Satellite Launch Center (WSC)
Your satellite tracking list
Your tracking list is empty




NASA's NSSDC Master Catalog

Two Line Element Set (TLE):
1 69576U 26137E   26247.29486837 -.00000136  00000-0 -25145-4 0  9993
2 69576  50.0049 312.1470 0000055 293.5588  66.5279 13.29325393 10850
Source of the keplerian elements: AFSPC